TIME,DELAY(SENSOR),PRES,OXYGEN,RAWTEMP,T(OPTODE),TCPHASE,FLUOR,BETA(BETA700),BETA(BETA412),BETA(BETA440),CDOM,C(CSC),ED(ED412.40),ED(ED444.00),ED(ED489.70),ED(ED554.30),LU(LU411.80),LU(LU443.40),LU(LU489.60),LU(LU554.10),COMP,TILTX,TILTY,CHECK
1359517512,5806,875.6599731445312000,44.7067108154296900,660.1229248046875000,4.6239261627197270,54.3038291931152340,52,99,84,79,80,15022,2147754742,2147426761,2148009261,2147875190,2147639808,2147058624,2148253476,2147197065,1569,4,13,16545
1359521108,5807,972.1099853515625000,50.0562896728515600,670.2017822265625000,4.2915291786193850,53.6680488586425800,53,99,88,79,80,15022,2147756617,2147423396,2148008640,2147872301,2147644370,2147054528,2148254555,2147196516,540,4,13,1464
1359524708,5808,990.0399780273438000,51.6309890747070300,671.5590209960938000,4.2466831207275390,53.4681701660156250,52,98,91,80,80,15011,2147758784,2147424237,2148008804,2147876141,2147640329,2147053577,2148261284,2147198738,217,4,13,30827
1359528308,5809,995.7500000000000000,50.9381217956543000,675.4168701171875000,4.1190891265869140,53.6108512878418000,53,98,86,81,80,15006,2147756672,2147421878,2148008630,2147874834,2147641033,2147052388,2148264064,2147194953,3470,4,13,5172
1359531908,5811,1000.5599975585938000,50.9222717285156250,675.9194946289062000,4.1024551391601560,53.6165885925293000,52,97,87,79,81,14948,2147755465,2147425929,2148010285,2147873984,2147638966,2147055012,2148260635,2147197650,3586,4,14,1118
1359535508,5810,999.8900146484375000,51.3890419006347660,676.9343872070312000,4.0688529014587400,53.5656013488769500,53,100,85,78,81,15000,2147758765,2147423753,2148010779,2147874944,2147645531,2147055296,2148261193,2147195081,57,4,13,34993
1359539108,5810,1012.3599853515625000,50.7564506530761700,675.8590698242188000,4.1044540405273440,53.6404609680175800,52,98,86,79,80,14999,2147756123,2147424256,2148008091,2147873115,2147640384,2147056182,2148257499,2147195081,134,4,13,59907
1359542708,5809,1018.5900268554688000,50.2215690612793000,674.7675170898438000,4.1405792236328125,53.7016792297363300,51,100,88,80,80,15001,2147758381,2147423661,2148009636,2147876324,2147643730,2147056274,2148262162,2147195510,3366,4,13,51182
1359546308,5811,1018.9199829101562000,50.1848487854003900,674.8707275390625000,4.1371650695800780,53.7032394409179700,53,100,84,79,81,15000,2147760594,2147427053,2148011392,2147871926,2147642066,2147058624,2148261330,2147195913,21,4,13,23362
1359549908,5807,1024.6600341796875000,51.9620590209960940,672.1013183593750000,4.2287597656250000,53.4306907653808600,53,99,85,79,79,15003,2147754770,2147424045,2148009837,2147874230,2147640265,2147057344,2148259977,2147193773,3245,4,13,25268
1359553508,5806,1018.0100097656250000,51.3654289245605500,672.2548217773438000,4.2236862182617190,53.5092582702636700,52,97,88,79,80,14983,2147756160,2147426048,2148010404,2147872877,2147646912,2147059392,2148260800,2147197019,3511,4,13,42333
1359557108,5810,1019.0100097656250000,51.8941192626953100,672.0147094726562000,4.2316207885742190,53.4345207214355500,52,98,88,78,81,15000,2147755858,2147422491,2148008886,2147874240,2147638857,2147055990,2148259538,2147194404,3082,4,13,13134
1359560708,5808,1017.0100097656250000,50.0592498779296900,674.8438720703125000,4.1380538940429690,53.7247886657714840,52,97,87,79,81,14996,2147757138,2147423661,2148010770,2147875053,2147643172,2147052315,2148259337,2147195556,3432,4,13,32057
1359564308,5809,1017.0599975585938000,50.4329299926757800,676.2399902343750000,4.0918459892272950,53.6927413940429700,52,98,86,79,79,14997,2147757284,2147425362,2148008265,2147875510,2147643273,2147058925,2148257462,2147193170,24,4,13,37132
1359567908,5804,1014.1199951171875000,50.0093498229980500,675.4097290039062000,4.1193280220031740,53.7365608215332000,53,99,89,78,81,14992,2147757293,2147421924,2148008877,2147874212,2147644891,2147058514,2148261248,2147196370,246,4,13,37913
1359571508,5806,1014.2500000000000000,49.9719810485839840,676.1035156250000000,4.0963630676269530,53.7510910034179700,52,97,85,78,80,14991,2147760310,2147425773,2148008566,2147871204,2147644854,2147052681,2148256155,2147194212,302,4,13,58527
1359575108,5810,1014.2899780273438000,50.5732116699218750,677.0925903320312000,4.0636157989501950,53.6795082092285160,52,98,83,79,80,14993,2147754048,2147423515,2148006665,2147872402,2147639680,2147054180,2148264073,2147193069,628,4,13,36422
1359578708,5808,1025.6500244140625000,50.7873382568359400,676.3880004882812000,4.0869450569152830,53.6405410766601560,52,98,86,80,81,14990,2147756534,2147425398,2148008740,2147874102,2147645805,2147055003,2148258550,2147196918,728,4,13,26377
1359582308,5809,1022.1099853515625000,50.0149307250976560,675.5938110351562000,4.1132369041442870,53.7407684326171900,52,100,86,80,81,14989,2147756736,2147423469,2148009536,2147871012,2147645339,2147049865,2148263250,2147195081,3398,4,13,13371
1359585908,5807,1022.5100097656250000,49.3060302734375000,675.0305175781250000,4.1318778991699220,53.8270301818847660,52,99,87,80,80,14989,2147754962,2147425197,2148009974,2147873188,2147641984,2147051520,2148260150,2147193737,51,4,13,41745
1359589508,5812,1021.8800048828125000,49.5215606689453100,674.8922119140625000,4.1364541053771970,53.8003196716308600,52,101,85,79,82,14993,2147758500,2147425618,2148010377,2147873298,2147642230,2147055798,2148262070,2147196608,502,4,13,1677
1359593108,5810,1019.5999755859375000,49.0076408386230500,675.2841796875000000,4.1234798431396480,53.8729705810546900,53,99,88,79,81,14990,2147757494,2147424566,2148012489,2147874395,2147642057,2147054299,2148261010,2147195264,208,4,13,21668
1359596708,5811,1022.0000000000000000,49.5455703735351560,675.2548217773438000,4.1244540214538570,53.7998809814453100,52,100,88,79,81,14991,2147758619,2147423405,2148012544,2147872804,2147647094,2147059200,2148261284,2147193901,590,4,13,38193
1359600308,5807,1021.8699951171875000,50.0827217102050800,675.6005249023438000,4.1130142211914060,53.7267608642578100,52,99,86,79,81,14987,2147757531,2147424950,2148013494,2147874294,2147644214,2147055899,2148263414,2147197174,142,4,13,13857
1359603908,5810,1019.1900024414062000,50.0895500183105500,676.6492919921875000,4.0782952308654785,53.7404289245605500,52,97,86,79,81,14986,2147758272,2147424384,2148011273,2147874688,2147641572,2147051008,2148261705,2147196507,3552,4,13,1285
1359607508,5806,1025.5799560546875000,49.6744613647460940,675.0764770507812000,4.1303539276123050,53.7760391235351560,53,98,88,79,80,14990,2147758875,2147426294,2148009773,2147874212,2147640676,2147057499,2148257819,2147196809,425,4,13,8519
1359611108,5810,1019.2000122070312000,50.3115692138671900,676.2238159179688000,4.0923819541931150,53.7081298828125000,53,106,87,79,81,14988,2147758409,2147423716,2148010761,2147873920,2147638518,2147061193,2148258413,2147196379,3170,4,13,48011
1359614708,5808,1009.2999877929688000,50.7363510131835940,677.4437866210938000,4.0519847869873050,53.6653785705566400,53,100,85,79,80,14988,2147759232,2147424201,2148008594,2147876333,2147642962,2147054646,2148265426,2147195602,834,4,13,59627
1359618308,5811,1012.9000244140625000,50.7306518554687500,678.1801147460938000,4.0275959968566895,53.6722488403320300,52,98,86,79,80,14987,2147758281,2147425417,2148013248,2147875986,2147642550,2147059766,2148257316,2147194797,283,4,13,45011
1359621908,5807,1016.7399902343750000,50.7354698181152340,677.6508178710938000,4.0451297760009770,53.6638298034668000,52,97,87,79,80,14986,2147758784,2147420406,2148010825,2147875940,2147640530,2147057728,2148258816,2147194678,181,4,13,60202
1359625508,5810,1026.9200439453125000,50.2475814819335940,675.5355834960938000,4.1151599884033200,53.7054100036621100,53,102,133,79,80,14990,2147759003,2147424036,2148009334,2147872064,2147642715,2147056365,2148258240,2147197604,3298,4,14,5010
1359629108,5809,1026.2800292968750000,50.0596809387207000,675.2656860351562000,4.1240921020507810,53.7274589538574200,52,98,87,79,81,14989,2147757522,2147424402,2148010697,2147875254,2147637421,2147056073,2148263414,2147195684,5,4,13,9910
1359632708,5809,1024.9399414062500000,49.6210708618164060,675.3917236328125000,4.1199250221252440,53.7925910949707000,52,99,85,78,81,14954,2147758006,2147424896,2148011245,2147879158,2147643190,2147057865,2148263094,2147197293,257,4,13,42992
1359636308,5807,1027.6199951171875000,49.3760299682617200,674.5374145507812000,4.1481928825378420,53.8112983703613300,52,99,87,79,80,14951,2147754834,2147424978,2148010340,2147870582,2147643346,2147059501,2148257325,2147198290,297,4,13,44830
1359639908,5807,1031.2399902343750000,49.2706604003906250,673.6010131835938000,4.1791691780090330,53.8192596435546900,52,97,84,77,81,14951,2147755620,2147422793,2148009563,2147874358,2147641856,2147054253,2148262436,2147197019,2736,4,13,20902
1359643508,5806,1028.8800048828125000,49.7965316772460940,674.3052978515625000,4.1558718681335450,53.7526702880859400,53,98,85,79,81,14946,2147756315,2147425252,2148010285,2147874496,2147639177,2147053677,2148264237,2147198665,461,4,13,46186
1359647108,5811,1030.6800537109375000,51.3444786071777340,671.7612304687500000,4.2399997711181640,53.5067901611328100,52,96,89,80,80,14950,2147752804,2147426614,2148010340,2147872329,2147641444,2147058724,2148259209,2147198080,36,4,13,34316
1359650708,5806,1029.4100341796875000,49.4418411254882800,674.6217041015625000,4.1454048156738280,53.8051300048828100,52,98,85,79,80,14947,2147756086,2147422473,2148011181,2147875904,2147639625,2147053577,2148263835,2147198710,3517,4,13,18211
1359654308,5811,1015.4099731445312000,49.7015800476074200,675.7572021484375000,4.1078262329101560,53.7820816040039060,52,100,88,78,79,14950,2147760832,2147421357,2148012882,2147878281,2147642596,2147056457,2148262665,2147196644,3078,4,13,28657
1359657908,5810,1017.7100219726562000,49.9616889953613300,677.0778808593750000,4.0640997886657715,53.7614402770996100,52,98,85,79,82,14947,2147759478,2147425289,2148010395,2147880667,2147644781,2147056603,2148259904,2147202185,51,4,13,4842
1359661508,5807,1016.3499755859375000,50.5973091125488300,678.4105834960938000,4.0199580192565920,53.6981201171875000,53,98,85,78,81,14943,2147755940,2147425737,2148012754,2147871305,2147643410,2147053046,2148263689,2147200073,3233,4,14,52380
1359662455,5809,1016.7100219726562000,50.5492095947265600,678.4594116210938000,4.0183429718017580,53.7008399963378900,52,98,86,78,80,15008,2147752018,2147425179,2148014646,2147874230,2147645485,2147054509,2148263003,2147194742,157,4,13,61264
